Weather History for KEGV - October, 2011

Change the Weather History Date:

Wednesday, October 12, 2011

  Actual Average Record
Temperature  
Mean Temperature 61 °F -  
Max Temperature 66 °F 57 °F 73 °F (2000)
Min Temperature 56 °F 35 °F 21 °F (2006)
Degree Days  
Heating Degree Days 4    
Growing Degree Days 11 (Base 50)    
Moisture  
Dew Point 57 °F    
Average Humidity 93    
Maximum Humidity 100    
Minimum Humidity 63    
Precipitation  
Precipitation 0.00 in - - ()
Sea Level Pressure  
Sea Level Pressure 29.83 in    
Wind  
Wind Speed 4 mph (SSE)    
Max Wind Speed 10 mph    
Max Gust Speed -    
Visibility 7 miles    
Events Rain    
Averages and records for this station are not official NWS values.
T = Trace of Precipitation, MM = Missing Value Source: NWS Daily Summary

Daily Weather History Graph

Daily Weather History Graph

Search for Another Location

Airport or City:

Trip Planner

Search our weather history database for the weather conditions in past years. The results will help you decide how hot, cold, wet, or windy it might be!

Date:

Astronomy

Oct. 12, 2011 Rise Set
Actual Time 7:09 AM CDT 6:16 PM CDT
Civil Twilight 6:39 AM CDT 6:46 PM CDT
Nautical Twilight 6:04 AM CDT 7:21 PM CDT
Astronomical Twilight 5:30 AM CDT 7:55 PM CDT
Moon 6:12 PM CDT (10/12) 7:49 AM CDT (10/12)
Length of Visible Light 12h 07m
Length of Day
11h 07m
Full, 100% of the Moon is Illuminated
Oct 12
Full
Oct 19
Last Quarter
Oct 26
New
Nov 2
First Quarter
Nov 10
Full

Hourly Weather History & Observations

Time (CDT) Temp. Dew Point Humidity Pressure Visibility Wind Dir Wind Speed Gust Speed Precip Events Conditions
12:15 AM 57.0 °F 57.0 °F 100% 29.91 in 2.5 mi South 3.5 mph - N/A   Overcast
12:35 AM 57.2 °F 57.2 °F 100% 29.91 in 2.5 mi South 3.5 mph - N/A   Overcast
12:55 AM 57.4 °F 57.4 °F 100% 29.91 in 2.0 mi Calm Calm - N/A   Overcast
1:15 AM 57.4 °F 57.4 °F 100% 29.91 in 1.8 mi South 4.6 mph - N/A   Overcast
1:35 AM 57.4 °F 57.4 °F 100% 29.91 in 2.0 mi SSW 3.5 mph - N/A   Overcast
1:55 AM 57.4 °F 57.4 °F 100% 29.91 in 2.0 mi South 3.5 mph - N/A   Overcast
2:35 AM 57.4 °F 57.4 °F 100% 29.90 in 1.2 mi Calm Calm - N/A   Overcast
2:55 AM 57.4 °F 57.4 °F 100% 29.90 in 1.2 mi SSW 3.5 mph - N/A   Overcast
3:15 AM 57.4 °F 57.4 °F 100% 29.89 in 1.2 mi Calm Calm - N/A   Overcast
3:35 AM 57.2 °F 57.2 °F 100% 29.89 in 1.5 mi SW 3.5 mph - N/A   Overcast
3:55 AM 56.8 °F 56.8 °F 100% 29.89 in 2.0 mi Calm Calm - N/A   Overcast
4:15 AM 56.8 °F 56.8 °F 100% 29.89 in 1.5 mi SW 3.5 mph - N/A   Overcast
4:35 AM 56.8 °F 56.8 °F 100% 29.89 in 2.5 mi SW 3.5 mph - N/A   Overcast
4:55 AM 56.8 °F 56.8 °F 100% 29.89 in 3.0 mi Calm Calm - N/A   Overcast
5:35 AM 57.2 °F 57.2 °F 100% 29.89 in 3.0 mi South 3.5 mph - N/A   Overcast
5:55 AM 57.2 °F 57.2 °F 100% 29.89 in 4.0 mi SSW 3.5 mph - N/A   Overcast
6:35 AM 57.2 °F 57.2 °F 100% 29.88 in 4.0 mi Calm Calm - N/A   Overcast
6:55 AM 57.2 °F 57.2 °F 100% 29.88 in 4.0 mi SSE 3.5 mph - N/A   Overcast
7:15 AM 57.2 °F 57.2 °F 100% 29.88 in 4.0 mi SSE 4.6 mph - N/A   Overcast
7:35 AM 57.2 °F 57.2 °F 100% 29.89 in 4.0 mi Calm Calm - N/A   Overcast
7:55 AM 57.2 °F 57.2 °F 100% 29.89 in 4.0 mi Calm Calm - N/A   Overcast
8:15 AM 57.4 °F 57.4 °F 100% 29.89 in 4.0 mi SSE 3.5 mph - N/A   Overcast
8:35 AM 57.7 °F 57.7 °F 100% 29.89 in 5.0 mi South 3.5 mph - N/A   Overcast
8:55 AM 58.1 °F 58.1 °F 100% 29.88 in 7.0 mi SSE 4.6 mph - N/A   Overcast
9:15 AM 58.3 °F 58.3 °F 100% 29.88 in 7.0 mi SSE 4.6 mph - N/A   Overcast
9:35 AM 58.5 °F 58.1 °F 99% 29.87 in 7.0 mi SSE 4.6 mph - N/A   Overcast
9:55 AM 58.8 °F 57.9 °F 97% 29.87 in 10.0 mi SE 3.5 mph - N/A   Overcast
10:15 AM 59.2 °F 57.9 °F 96% 29.86 in 10.0 mi South 6.9 mph - N/A   Overcast
10:35 AM 59.5 °F 58.3 °F 96% 29.86 in 10.0 mi South 3.5 mph - N/A   Overcast
10:55 AM 60.8 °F 57.9 °F 90% 29.85 in 10.0 mi SSE 5.8 mph - N/A   Overcast
11:15 AM 61.9 °F 57.6 °F 86% 29.86 in 10.0 mi SSE 3.5 mph - N/A   Overcast
11:35 AM 61.3 °F 58.3 °F 90% 29.85 in 10.0 mi SSE 6.9 mph - N/A   Overcast
11:55 AM 61.7 °F 57.4 °F 86% 29.85 in 10.0 mi SE 6.9 mph - N/A   Overcast
12:15 PM 63.1 °F 56.3 °F 78% 29.84 in 10.0 mi ESE 5.8 mph - N/A   Mostly Cloudy
12:35 PM 63.9 °F 55.8 °F 75% 29.84 in 10.0 mi South 6.9 mph - N/A   Mostly Cloudy
12:55 PM 63.9 °F 56.5 °F 77% 29.83 in 10.0 mi ESE 8.1 mph - N/A   Overcast
1:15 PM 65.8 °F 55.2 °F 69% 29.82 in 10.0 mi SE 5.8 mph - N/A   Mostly Cloudy
1:35 PM 66.0 °F 54.3 °F 66% 29.81 in 10.0 mi South 8.1 mph - N/A   Mostly Cloudy
2:15 PM 65.8 °F 53.4 °F 64% 29.80 in 10.0 mi SE 4.6 mph - N/A   Mostly Cloudy
2:35 PM 66.0 °F 53.1 °F 63% 29.79 in 10.0 mi ESE 6.9 mph - N/A   Scattered Clouds
2:55 PM 65.7 °F 53.6 °F 65% 29.78 in 10.0 mi South 5.8 mph - N/A   Scattered Clouds
3:15 PM 64.6 °F 54.3 °F 69% 29.77 in 10.0 mi South 5.8 mph - N/A   Mostly Cloudy
3:35 PM 64.0 °F 54.9 °F 72% 29.77 in 10.0 mi SSE 3.5 mph - N/A   Overcast
4:35 PM 62.4 °F 55.9 °F 79% 29.76 in 10.0 mi SE 4.6 mph - N/A Rain Light Rain
4:55 PM 60.8 °F 56.8 °F 87% 29.75 in 10.0 mi SE 3.5 mph - N/A Rain Light Rain
5:15 PM 59.9 °F 59.5 °F 99% 29.75 in 7.0 mi ESE 5.8 mph - N/A Rain Light Rain
5:35 PM 60.1 °F 60.1 °F 100% 29.75 in 7.0 mi ESE 4.6 mph - N/A   Overcast
5:55 PM 60.8 °F 60.4 °F 99% 29.74 in 7.0 mi ESE 4.6 mph - N/A   Overcast
6:15 PM 60.6 °F 60.3 °F 99% 29.74 in 7.0 mi ESE 3.5 mph - N/A   Overcast
6:35 PM 60.1 °F 60.1 °F 100% 29.74 in 7.0 mi East 3.5 mph - N/A   Overcast
6:55 PM 59.7 °F 59.7 °F 100% 29.73 in 7.0 mi East 4.6 mph - N/A   Overcast
7:15 PM 59.0 °F 59.0 °F 100% 29.73 in 7.0 mi East 4.6 mph - N/A   Overcast
7:35 PM 58.5 °F 58.5 °F 100% 29.72 in 7.0 mi East 5.8 mph - N/A   Scattered Clouds
7:55 PM 58.3 °F 58.3 °F 100% 29.71 in 7.0 mi East 8.1 mph - N/A   Clear
8:15 PM 58.6 °F 58.6 °F 100% 29.71 in 10.0 mi ESE 8.1 mph - N/A   Clear
8:35 PM 58.8 °F 58.5 °F 99% 29.71 in 10.0 mi ESE 10.4 mph - N/A   Clear
8:55 PM 58.6 °F 57.6 °F 96% 29.72 in 10.0 mi SE 5.8 mph - N/A   Scattered Clouds
9:15 PM 58.5 °F 56.7 °F 94% 29.72 in 10.0 mi SE 4.6 mph - N/A   Scattered Clouds
9:35 PM 57.6 °F 56.1 °F 95% 29.72 in 10.0 mi SE 3.5 mph - N/A   Clear
9:55 PM 56.7 °F 55.6 °F 96% 29.71 in 10.0 mi SE 4.6 mph - N/A   Clear
10:15 PM 55.9 °F 55.0 °F 97% 29.71 in 10.0 mi ESE 5.8 mph - N/A   Clear
10:35 PM 55.8 °F 54.5 °F 96% 29.70 in 10.0 mi SE 4.6 mph - N/A   Clear
11:15 PM 55.8 °F 54.0 °F 94% 29.70 in 10.0 mi SE 4.6 mph - N/A   Clear
11:35 PM 55.4 °F 54.0 °F 95% 29.69 in 10.0 mi ESE 4.6 mph - N/A   Clear
11:55 PM 54.3 °F 53.6 °F 97% 29.69 in 10.0 mi ESE 3.5 mph - N/A   Clear